Theta_e
315 316 317 319 328 329 336 336 329 334 332 333 328 340 347 349 351 354 351 354 352 354 352 345 338 336 339 342 343 345 345 345 345 345 346 344 339 337 335 338 340 339 338 331 326 318 320 323 326
315 315 318 321 333 338 338 331 333 329 326 325 332 346 351 353 354 355 353 353 352 353 351 349 336 334 337 339 340 343 345 345 345 346 345 343 339 336 335 337 334 331 329 330 320 319 322 326 330
314 317 321 324 329 340 341 330 327 325 323 326 336 345 350 352 354 352 351 353 353 353 353 349 334 332 334 336 337 337 340 344 344 345 344 340 335 333 334 333 330 329 330 325 318 320 324 330 332
314 317 318 324 329 329 333 329 323 325 322 326 339 349 348 351 351 351 353 353 352 353 353 343 333 331 333 334 335 334 333 334 335 335 333 331 332 332 332 330 330 331 327 321 318 321 326 330 332
313 316 321 322 325 323 323 323 323 324 321 322 340 349 351 354 354 355 353 352 352 353 352 347 332 331 332 334 334 333 333 331 329 328 328 329 329 329 329 331 332 329 323 320 319 320 323 328 332
316 316 321 322 322 322 322 322 322 321 320 321 338 349 351 354 355 356 353 352 351 352 352 350 333 332 331 333 333 333 332 331 328 327 328 329 330 331 332 333 333 327 321 322 320 320 321 324 327
315 318 321 320 321 322 322 321 320 320 320 323 342 351 348 355 355 356 354 353 352 352 352 350 343 333 331 332 333 332 331 331 329 329 330 332 332 333 334 333 330 326 322 321 320 318 318 318 319
314 316 318 319 322 323 319 319 318 318 321 321 338 350 350 352 355 355 354 353 352 352 351 350 347 345 344 337 333 333 331 330 329 329 329 330 331 332 331 331 329 327 323 321 320 319 319 319 318
311 315 317 318 319 321 317 319 318 318 319 322 326 331 338 352 352 352 353 352 351 352 352 351 348 347 347 345 339 334 334 332 330 330 329 329 339 339 338 335 330 327 324 322 322 321 320 320 320
313 315 317 317 318 320 318 317 317 319 320 325 327 346 350 351 350 350 350 350 350 350 351 351 350 348 347 346 346 344 344 342 340 338 334 338 340 337 337 336 329 328 327 325 324 323 322 321 332
313 314 318 316 317 317 317 317 317 318 320 320 323 338 351 351 350 348 347 347 347 349 350 351 352 350 348 346 348 348 346 347 346 343 339 343 343 343 341 343 340 339 334 338 334 336 335 334 333
315 315 313 316 315 316 316 316 316 317 319 318 318 319 346 352 352 349 347 347 347 348 349 351 352 352 351 348 348 349 348 349 348 347 343 345 344 344 344 344 344 340 341 339 338 337 334 325 323
318 317 319 314 316 315 315 315 316 317 318 318 317 318 321 347 350 351 350 349 348 347 347 349 351 351 351 351 350 350 350 349 349 349 349 347 346 346 344 344 344 344 344 342 341 337 336 335 331
312 312 315 314 313 314 314 315 315 317 318 318 318 319 319 322 337 340 344 350 350 350 349 348 349 348 349 349 352 350 351 350 349 349 349 343 346 347 345 345 345 345 344 344 344 344 343 341 339
312 312 312 312 313 314 314 315 315 317 318 318 319 319 318 318 317 320 330 337 346 349 352 351 350 350 351 350 351 350 351 350 349 349 348 344 339 342 342 345 346 345 345 344 345 345 344 343 342
312 313 316 316 313 315 315 316 318 317 317 318 318 318 319 320 318 318 319 321 327 331 334 348 348 350 347 349 351 350 350 349 348 348 344 342 338 338 346 346 346 345 345 345 345 344 344 343 342
314 315 315 316 314 314 315 316 317 317 317 318 320 319 319 320 320 318 317 316 317 318 326 336 342 348 349 348 348 349 349 348 348 345 345 342 342 343 348 348 345 347 346 345 344 344 343 343 342
315 315 314 316 315 315 315 317 317 317 317 319 319 319 318 318 319 320 319 315 315 315 318 322 334 348 348 349 347 347 347 347 346 343 341 342 344 346 344 345 346 347 346 345 345 344 344 343 342
315 316 316 315 315 316 316 317 319 317 317 319 319 318 318 317 318 316 317 317 315 314 315 321 335 341 347 348 347 347 347 346 345 344 344 344 345 345 345 348 348 347 345 346 345 345 345 344 343
316 316 317 316 315 316 317 318 318 318 318 317 317 318 319 321 321 320 318 318 320 320 315 324 338 339 342 347 348 347 347 347 347 348 347 347 346 345 345 345 346 346 346 346 346 345 344 343 342
316 317 317 316 315 315 316 318 318 317 316 316 318 321 322 322 322 323 322 319 318 320 324 323 335 344 345 345 345 342 342 344 347 349 349 348 343 340 339 337 339 339 341 344 345 346 344 344 344
317 316 316 317 318 318 315 317 318 318 318 317 324 323 322 322 323 324 325 324 320 317 318 327 337 341 342 342 344 343 344 343 342 343 337 331 329 328 326 327 329 332 338 336 339 342 342 342 342
317 316 317 317 318 317 316 318 318 315 318 323 323 322 322 322 324 326 326 324 323 323 322 326 334 336 338 340 341 342 341 337 335 332 331 333 328 327 327 326 326 327 333 332 336 337 338 338 340
315 316 315 315 316 320 319 319 318 317 321 325 321 321 320 321 322 323 323 325 327 327 328 330 333 333 331 331 330 334 331 332 332 332 332 330 330 329 324 326 322 321 324 325 329 333 334 334 334
316 318 319 319 319 319 317 317 318 319 322 322 322 321 320 320 321 322 322 322 322 324 327 331 332 331 331 330 328 327 326 325 327 328 329 329 328 328 323 319 318 322 316 314 315 322 330 332 333
321 320 319 319 319 318 319 321 322 323 321 321 322 323 323 324 322 321 320 319 320 320 320 322 323 323 324 324 323 321 321 326 327 326 327 326 325 325 319 318 317 316 315 315 314 322 323 329 331
321 321 317 321 322 323 320 321 325 324 324 321 319 318 319 320 321 322 322 319 318 317 317 318 319 319 317 316 317 318 318 319 319 320 320 325 324 324 319 318 317 316 316 317 316 321 320 323 325
322 320 325 325 327 324 323 323 322 327 324 320 319 318 317 318 319 319 320 321 320 317 316 316 316 315 315 316 316 316 315 316 317 319 321 323 322 322 323 325 325 324 320 317 317 319 318 320 320
322 323 323 323 324 326 323 322 321 327 324 321 319 316 316 317 318 318 318 316 315 314 313 312 311 311 311 311 311 312 312 313 315 317 318 317 318 318 320 321 323 323 323 323 323 320 318 319 318
317 320 323 329 327 328 328 327 322 324 321 318 317 316 317 318 317 316 315 314 313 311 311 310 310 309 309 309 309 310 310 310 309 311 311 310 314 315 316 317 319 320 321 321 321 320 317 316 317
Wind_Speed
12 13 5 3 4 2 3 2 3 4 7 4 14 4 3 3 1 2 3 10 20 27 25 24 26 26 26 25 24 25 27 28 27 25 22 20 20 18 17 18 16 13 11 9 8 8 10 10 10
10 7 1 1 4 6 5 2 1 6 11 14 5 5 4 2 3 7 13 12 23 28 26 25 27 27 26 25 24 25 26 26 25 23 21 20 18 17 17 17 15 12 11 9 8 9 10 10 9
5 4 2 3 3 9 4 5 1 8 11 4 1 2 2 2 2 12 4 19 25 25 23 24 27 27 26 25 25 25 25 24 24 22 20 19 18 18 18 17 15 12 10 9 9 9 10 9 8
3 1 2 5 9 5 2 7 3 9 3 4 3 2 2 5 6 5 16 19 24 24 21 25 26 26 25 24 24 24 23 22 22 20 19 18 18 18 17 16 13 11 9 8 8 9 9 8 7
5 1 4 4 7 3 4 2 5 6 7 7 0 0 2 4 5 12 20 21 25 22 20 23 26 26 25 24 23 22 21 19 19 19 19 19 18 17 16 14 11 10 9 8 8 7 7 7 6
2 0 4 10 4 3 3 4 4 4 5 7 4 3 3 3 7 13 17 20 24 24 21 21 26 25 24 24 23 21 20 19 18 19 18 17 17 16 14 12 10 9 8 7 6 6 6 6 6
0 1 5 3 5 3 2 2 2 5 6 3 1 7 1 5 7 13 14 17 21 20 21 19 21 24 24 24 22 20 19 19 18 18 18 16 15 15 13 11 10 8 7 7 6 6 6 6 6
1 0 3 4 5 2 2 0 1 4 3 8 2 4 3 4 11 14 13 17 19 20 20 20 21 20 20 22 23 21 20 19 18 17 17 16 14 13 11 10 9 9 8 7 7 6 6 7 7
1 3 8 7 5 2 2 3 3 4 5 4 4 3 2 17 15 14 14 15 17 18 19 19 19 19 19 19 21 21 20 19 18 17 16 15 12 12 11 11 10 9 9 8 8 8 8 8 10
7 7 11 4 5 6 3 2 5 5 7 2 2 6 11 17 17 15 15 16 18 20 20 20 20 19 19 18 17 19 18 17 18 18 17 16 14 13 12 11 11 11 10 10 10 10 9 9 8
8 13 10 6 9 5 4 4 2 4 0 5 6 1 8 12 13 14 13 15 17 18 19 20 19 19 19 18 17 17 17 16 17 18 18 16 13 12 12 10 11 11 11 10 10 8 8 9 9
11 15 8 9 5 4 7 3 6 5 7 4 8 4 8 11 11 13 15 16 17 19 20 21 21 21 21 19 19 18 18 17 16 16 18 15 14 14 13 12 11 12 10 11 10 9 11 13 13
18 17 12 13 24 14 7 10 8 10 11 12 9 7 7 10 11 14 15 14 15 19 22 25 25 25 24 23 19 19 18 18 17 16 17 17 16 16 16 16 14 13 12 13 12 13 13 12 14
12 16 17 16 15 10 8 10 6 8 9 10 5 7 8 9 12 10 13 18 19 20 23 23 27 29 28 27 25 22 20 18 18 16 16 20 19 18 16 15 14 15 16 13 13 12 12 12 15
8 7 11 14 14 9 6 10 11 15 8 10 9 6 8 10 9 14 17 17 21 23 21 23 23 25 28 28 27 23 20 20 18 16 17 17 17 21 22 18 17 18 15 17 16 15 14 13 13
12 5 10 7 12 8 10 16 7 1 3 7 5 7 8 11 15 16 16 19 19 20 22 19 21 25 30 28 22 20 21 20 19 18 18 17 16 17 17 16 20 16 17 16 14 14 14 14 13
3 8 9 5 13 4 9 4 4 2 4 8 7 6 9 12 11 16 20 22 26 27 23 20 20 22 25 27 26 23 23 23 20 21 19 19 19 19 18 14 16 15 15 13 14 13 13 13 11
12 8 5 9 5 6 6 6 8 3 2 5 6 7 9 11 16 16 9 17 23 27 30 25 23 21 20 19 20 21 18 19 18 20 20 19 19 18 18 16 16 14 12 13 15 13 12 14 13
7 5 9 4 4 1 6 5 7 1 6 5 5 7 9 8 8 10 9 11 17 23 26 26 23 24 20 20 20 20 25 21 19 19 20 21 20 18 17 15 13 11 13 15 13 12 13 15 12
4 4 5 2 3 5 3 6 7 7 4 2 6 8 10 11 10 8 9 6 4 8 18 19 23 24 25 20 17 12 17 15 14 14 17 16 16 15 15 15 13 12 11 11 10 11 12 14 14
4 7 5 6 1 3 1 4 4 2 2 1 4 6 7 11 13 15 14 13 9 9 12 18 18 18 18 18 16 14 10 7 9 11 9 11 8 8 9 8 8 8 8 8 9 10 12 14 13
6 10 10 8 3 5 1 3 2 3 4 1 8 11 12 12 11 11 14 15 13 14 13 12 11 12 12 14 14 16 12 10 7 10 13 12 11 9 7 6 7 7 6 7 7 8 11 11 16
5 5 9 5 7 4 4 4 3 2 5 4 10 10 10 10 10 13 13 16 15 11 7 3 3 6 12 15 13 13 11 10 12 13 13 11 11 9 7 7 6 4 4 5 6 6 8 10 15
10 5 4 3 3 6 5 6 4 4 1 1 6 8 10 11 12 13 16 16 17 14 9 7 9 10 12 13 12 13 16 16 14 13 11 10 10 11 11 9 7 6 6 6 7 8 9 10 12
4 5 3 5 5 5 2 4 3 2 2 5 7 10 12 12 12 12 13 15 18 18 15 13 14 15 14 14 14 12 11 11 11 11 11 12 12 13 14 12 10 8 7 6 7 10 11 12 13
4 4 4 5 4 2 2 5 3 5 8 8 7 6 8 10 10 11 12 12 13 14 15 14 13 12 10 7 6 4 2 1 4 7 9 12 13 13 15 15 14 12 12 11 10 9 11 12 13
5 5 2 4 2 3 4 2 5 8 8 8 8 11 10 10 9 8 8 10 11 11 11 11 10 9 9 7 6 5 6 8 10 13 15 14 16 15 18 19 19 18 17 17 15 13 13 13 14
0 8 3 1 4 7 5 5 6 13 12 6 6 10 11 10 9 8 7 8 7 9 9 11 12 11 10 10 9 7 8 10 12 14 16 16 19 17 16 17 18 20 22 23 21 18 16 15 15
4 4 3 1 2 4 5 4 1 12 10 4 4 9 10 11 9 7 7 7 8 10 12 13 14 13 13 13 12 12 11 9 9 10 12 14 18 20 19 21 21 22 23 22 21 22 20 18 18
1 2 4 4 5 3 2 5 3 8 5 1 6 10 11 8 6 4 5 7 8 9 10 11 10 10 10 11 11 11 13 13 12 13 12 13 14 13 16 18 21 24 26 24 24 25 24 23 22
Wind_Direction
328 329 332 179 210 239 182 228 328 310 335 306 310 235 278 349 307 342 148 159 156 155 162 170 171 172 171 169 162 160 162 163 164 164 162 161 160 158 157 156 155 157 158 159 159 154 149 146 137
332 343 63 165 225 197 191 175 259 329 306 309 285 230 216 45 77 108 134 169 161 159 165 168 173 174 173 170 166 161 165 165 166 166 166 165 164 163 161 161 161 162 164 164 161 156 154 149 144
342 4 258 233 202 213 195 176 49 305 318 292 277 335 19 30 96 152 165 162 161 161 165 170 174 175 175 172 169 165 163 166 169 170 170 170 170 168 166 168 168 170 171 172 168 166 163 162 161
45 118 116 237 213 212 215 142 295 326 7 3 349 251 103 4 127 167 150 157 162 164 166 174 177 177 177 173 171 167 165 167 171 175 176 174 171 170 172 173 174 178 182 179 176 176 177 178 176
57 101 236 241 226 258 231 252 296 309 305 321 146 318 97 74 98 136 150 157 166 165 168 174 179 179 179 176 174 171 170 170 172 172 171 171 171 173 177 180 184 189 189 187 187 188 190 195 201
116 40 234 232 227 240 257 246 261 288 288 298 209 157 145 122 138 150 157 165 170 168 170 176 183 183 182 180 178 177 176 175 173 173 173 174 176 179 184 190 196 201 200 198 198 201 203 211 222
305 209 239 245 250 254 233 108 168 322 298 36 306 177 98 174 149 150 159 162 167 171 171 176 182 187 187 186 183 182 181 180 179 181 184 186 189 191 195 201 209 211 212 216 219 221 219 220 230
22 270 227 219 239 250 226 312 279 341 337 317 263 188 157 133 145 143 152 161 168 175 181 183 184 186 188 191 190 187 186 187 187 188 191 195 199 204 207 212 217 221 224 229 235 239 247 251 246
297 234 234 224 212 231 187 4 348 304 308 323 352 328 6 141 144 142 150 163 176 186 190 190 191 190 189 189 193 194 193 193 193 195 198 201 202 208 214 220 225 231 235 238 242 249 253 261 269
228 233 241 238 232 257 263 20 326 328 346 351 8 57 124 146 157 160 172 179 191 196 197 198 197 197 195 193 190 192 194 197 198 199 202 204 211 213 215 223 232 238 244 247 251 256 262 264 267
244 244 263 247 235 239 267 314 330 329 31 53 17 72 156 165 173 177 187 197 201 203 205 206 205 203 202 201 197 196 196 200 205 208 208 211 214 220 224 227 232 234 242 245 252 252 257 257 264
259 240 265 313 263 242 274 306 297 270 256 309 324 294 187 185 189 194 199 203 201 204 208 209 209 209 209 206 206 206 202 203 207 211 216 217 222 227 226 231 235 242 238 245 253 255 258 270 278
227 233 255 262 270 269 257 259 266 263 267 283 286 247 232 204 205 214 222 224 214 214 211 211 209 211 211 213 212 210 209 208 211 214 217 217 222 228 233 238 238 242 245 252 256 265 268 278 285
208 219 200 251 253 267 250 252 196 267 262 273 238 246 245 235 217 221 220 226 220 223 222 215 215 216 214 214 214 214 213 212 213 214 216 223 228 235 234 245 253 256 257 259 263 266 272 275 281
193 183 218 225 250 245 239 238 204 244 271 264 279 269 220 239 248 232 226 225 224 224 227 222 216 217 217 218 217 215 216 214 217 214 221 231 236 239 234 235 243 255 262 264 266 268 270 274 274
184 213 219 196 204 233 194 257 246 193 222 255 265 284 267 242 229 237 240 236 231 230 231 223 219 219 222 222 219 217 218 217 220 219 224 228 239 245 244 238 245 251 249 256 259 261 262 263 262
169 192 205 210 195 147 200 211 230 347 241 253 247 269 281 270 249 240 244 242 243 241 235 231 227 221 220 219 222 219 222 220 224 228 231 236 237 237 232 237 252 251 249 247 251 250 249 256 261
180 201 210 197 155 171 182 221 277 277 221 254 271 280 288 268 255 253 242 243 246 243 239 238 235 228 221 211 215 217 226 229 228 234 238 237 234 238 247 250 254 249 260 260 255 253 255 258 263
174 189 198 184 158 234 202 253 269 258 245 253 287 323 327 294 288 288 280 243 239 241 232 227 221 225 211 203 203 214 220 223 226 229 234 235 237 236 235 240 244 250 253 254 254 256 259 260 258
164 203 231 259 249 210 231 248 281 283 271 301 335 344 347 340 341 341 329 308 296 256 235 233 230 223 217 207 205 205 207 217 223 227 233 236 239 238 235 236 241 238 246 256 256 243 250 263 250
192 220 234 247 73 222 244 240 230 227 259 146 22 2 7 355 340 337 340 335 331 280 258 245 230 228 222 208 189 187 169 180 196 207 210 216 207 203 206 211 224 224 230 246 251 249 246 257 259
210 217 231 237 202 251 287 265 239 232 254 126 21 9 4 2 358 351 349 354 344 319 299 278 245 219 209 204 193 191 192 189 189 167 170 172 172 179 189 204 214 221 223 248 254 256 257 258 264
221 172 210 226 197 186 172 240 207 268 218 44 13 10 19 20 21 19 8 358 1 360 349 299 208 188 205 202 202 182 171 179 156 157 161 173 174 183 190 194 201 214 224 248 260 265 264 264 265
147 127 93 108 156 233 194 228 192 174 175 54 31 36 32 36 43 42 37 33 33 33 45 89 119 123 140 145 150 157 153 148 155 163 178 186 191 194 197 204 218 227 238 256 270 272 271 268 266
165 166 189 214 217 250 76 231 277 131 64 105 84 63 56 52 48 43 43 41 42 46 56 79 103 108 117 129 134 138 147 157 168 180 196 195 202 208 210 216 217 225 231 249 271 271 271 275 272
187 209 211 220 220 237 158 235 121 112 119 113 94 72 48 36 32 42 51 49 50 51 57 65 68 71 71 69 72 87 116 251 234 225 225 227 229 231 228 224 226 230 230 235 246 253 264 264 266
153 198 59 123 75 249 241 177 135 152 130 116 75 47 26 13 8 4 27 62 62 61 58 54 51 50 44 33 10 334 302 283 273 268 265 260 253 249 241 238 237 237 237 235 235 238 248 254 258
353 133 155 146 220 243 214 250 250 184 169 144 74 28 9 356 348 357 350 342 15 34 34 34 32 36 24 16 2 345 322 305 285 277 272 261 252 255 256 253 246 243 238 236 233 238 243 240 251
147 163 73 95 237 249 265 239 317 189 169 145 24 359 349 338 338 340 354 22 44 55 48 41 35 29 22 14 5 357 350 346 322 295 280 273 274 270 260 259 257 251 248 245 239 237 241 244 249
38 150 180 208 200 225 284 266 349 173 156 321 334 345 348 338 349 28 57 64 60 48 36 33 22 15 5 353 339 333 323 320 310 303 307 299 284 280 272 266 257 252 249 248 248 247 243 240 245